Location: Tierra del Sol
(32.6128°N, 116.3319°W)
Time: 12:59:59
(UTC-08:00)

Vanguard 2 - Visible Passes

Search period start: 22 February 2018 00:00
Search period end: 04 March 2018 00:00
Orbit: 553 x 2939 km, 32.9° (Epoch: 21 February)

Date Brightness Start Highest point End Pass type
(mag) Time Alt. Az. Time Alt. Az. Time Alt. Az.
22 Feb 7.8 19:38:28 10° W 19:47:09 86° S 19:47:37 78° ESE visible
23 Feb 8.1 19:56:53 10° W 20:04:50 72° SW 20:04:50 72° SW visible
24 Feb 8.8 18:02:19 10° W 18:14:06 88° N 18:20:37 12° E visible
24 Feb 8.6 20:15:17 10° W 20:22:03 52° WSW 20:22:03 52° WSW visible
25 Feb 8.7 18:20:51 10° W 18:32:21 90° SE 18:37:52 17° E visible
25 Feb 9.2 20:33:44 10° W 20:39:18 37° WSW 20:39:18 37° WSW visible
26 Feb 8.6 18:39:22 10° W 18:50:32 83° SSW 18:55:07 23° ESE visible
26 Feb 9.8 20:52:18 10° W 20:56:34 26° WSW 20:56:34 26° WSW visible
27 Feb 8.6 18:57:51 10° W 19:08:39 73° SSW 19:12:24 29° ESE visible
27 Feb 10.3 21:11:08 10° W 21:13:51 18° WSW 21:13:51 18° WSW visible
28 Feb 8.8 19:16:20 10° W 19:26:40 60° SSW 19:29:42 34° SE visible
28 Feb 10.7 21:30:39 10° WSW 21:31:09 11° WSW 21:31:09 11° WSW visible
01 Mar 9.0 19:34:51 10° W 19:44:31 47° SSW 19:47:03 34° SSE visible
02 Mar 9.3 19:53:31 10° W 20:02:13 35° SW 20:04:25 29° S visible
03 Mar 9.4 17:58:07 10° W 18:11:28 71° SSW 18:19:16 10° ESE visible
03 Mar 9.8 20:12:28 10° W 20:19:47 25° SW 20:21:49 22° SSW visible
